[[{"header":{"parameterUnit":"m.s-1","parameterCategory":1,"la1":30.2991,"la2":30.254,"lo1":-89.0895,"lo2":-89.0444,"dy":0.0017,"dx":0.0017,"nx":28,"ny":28,"refTime":"2023-09-30T21:00:00:Z","depth":0,"parameterNumber":2,"parameterNumberName":"U-component_of_WINDS"},"data":[0,0,0,0,0,0,0,0,0,0,0,0,0,0,0,0,0,0,0,0,0,0,0,0,0,0,0,0,0,0,0,0,0,0,0,0,0,0,0,0,0,0,0,0,0,0,0,0,0,0,0,0,0,0,0,0,0,0,-5.5513,-5.5513,0,-5.545,-5.5449,-5.5448,-5.5296,-5.5293,-5.529,-5.5287,-5.5224,-5.5226,-5.5227,0,0,0,0,0,0,0,0,0,0,0,0,0,-5.5508,-5.5509,-5.5514,-5.5513,-5.5512,-5.545,-5.5449,-5.5448,-5.5297,-5.5293,-5.5289,-5.5286,-5.5224,-5.5225,-5.5227,0,0,0,0,0,0,0,0,0,0,0,0,0,-5.5485,-5.551,-5.5514,-5.5429,-5.5421,-5.545,-5.5449,-5.5448,-5.5298,-5.5293,-5.5288,-5.5284,-5.5223,-5.5225,-5.5227,-5.5334,0,0,-5.5233,-5.5234,0,0,0,0,0,0,0,0,-5.5486,-5.5485,-5.5442,-5.5435,-5.5426,-5.5376,-5.5424,-5.541,-5.5299,-5.5345,-5.5287,-5.5281,-5.5279,-5.5276,-5.5274,-5.5331,-5.5329,-5.5233,-5.5234,-5.5235,-5.5236,0,0,0,0,0,0,0,-5.5488,-5.5487,-5.5488,-5.5442,-5.5432,-5.5395,-5.5387,-5.5421,-5.5339,-5.534,-5.5329,-5.5323,-5.5273,-5.5273,-5.5272,-5.5328,-5.5233,-5.5235,-5.5236,-5.5237,-5.5472,-5.5477,0,0,0,0,0,0,-5.5501,-5.5489,-5.549,-5.5486,-5.5445,-5.5399,-5.539,-5.5397,-5.5338,-5.5325,-5.5328,-5.5317,-5.5272,-5.527,-5.5269,-5.5392,-5.5235,-5.5237,-5.5238,-5.5467,-5.5473,-5.5479,0,0,0,0,0,0,-5.5502,-5.5503,-5.5493,-5.5485,-5.5481,-5.5405,-5.5414,-5.5398,-5.5397,-5.5329,-5.5314,-5.5342,-5.5268,-5.5266,-5.532,-5.5388,-5.5238,-5.524,-5.5461,-5.5469,-5.5476,-5.5639,0,0,0,0,0,0,-5.5502,-5.5504,-5.5543,-5.5487,-5.5482,-5.5544,-5.5418,-5.54,-5.5401,-5.5386,-5.5338,-5.5326,-5.5264,-5.5318,-5.5322,-5.5388,-5.5241,-5.5455,-5.5465,-5.5474,-5.5627,-5.5651,-5.5672,0,0,0,0,0,-5.5503,-5.5591,-5.5545,-5.5546,-5.5528,-5.5548,-5.5545,-5.5472,-5.5407,-5.5446,-5.5403,-5.5327,-5.538,-5.5324,-5.5327,-5.5395,-5.545,-5.5462,-5.5473,-5.5617,-5.5646,-5.5671,0,0,0,0,0,0,-5.5657,-5.5582,-5.5531,-5.5603,-5.5583,-5.5522,-5.5569,-5.5505,-5.5503,-5.5489,-5.5399,-5.539,-5.5456,-5.5431,-5.537,-5.5497,-5.5403,-5.5416,-5.5511,-5.5539,-5.5561,-5.5566,-5.5243,0,0,0,0,0,-5.57,-5.5721,-5.5654,-5.5725,-5.5717,-5.5646,-5.5651,-5.5597,-5.5573,-5.5564,-5.5523,-5.5504,-5.5516,-5.5526,-5.5533,-5.5623,-5.5611,-5.5671,-5.5694,-5.5712,-5.5725,-5.5773,-5.5799,-5.5516,-5.5516,-5.5516,0,0,-5.5788,-5.5749,-5.5768,-5.5755,-5.5733,-5.5759,-5.5639,-5.5671,-5.5689,-5.5568,-5.5616,-5.5587,-5.5559,-5.5632,-5.5662,-5.5613,-5.58,-5.5727,-5.5742,-5.5744,-5.5787,-5.5814,-5.5838,-5.5524,-5.5523,-5.5522,0,0,-5.5961,-5.5934,-5.599,-5.5971,-5.5939,-5.5891,-5.5906,-5.5855,-5.5831,-5.5877,-5.5788,-5.581,-5.5832,-5.5816,-5.5812,-5.5983,-5.5915,-5.5988,-5.6105,-5.6153,-5.6175,-5.6194,-5.6257,-5.628,-5.6,-5.6001,-5.6001,0,-5.6075,-5.6108,-5.6028,-5.6065,-5.6064,-5.5956,-5.6014,-5.5999,-5.5972,-5.5974,-5.5919,-5.5947,-5.592,-5.5989,-5.6031,-5.603,-5.6045,-5.5993,-5.6178,-5.6197,-5.6213,-5.6272,-5.6296,-5.601,-5.6009,-5.6008,-5.6007,0,-5.625,-5.6275,-5.6325,-5.6302,-5.6305,-5.6353,-5.6282,-5.6296,-5.6242,-5.6201,-5.6251,-5.6216,-5.6216,-5.6228,-5.6175,-5.629,-5.6261,-5.6194,-5.6097,-5.6251,-5.6305,-5.6327,-5.6023,-5.602,-5.6017,-5.6015,0,0,-5.6517,-5.6451,-5.6471,-5.646,-5.6418,-5.6437,-5.6481,-5.648,-5.6495,-5.6481,-5.6517,-5.6539,-5.6477,-5.6472,-5.6417,-5.6459,-5.66,-5.6387,-5.6385,-5.6429,-5.6727,-5.6779,-5.6806,-5.6554,-5.6558,-5.6562,-5.673,0,-5.6681,-5.6752,-5.6683,-5.6768,-5.6791,-5.6691,-5.6729,-5.671,-5.6673,-5.6689,-5.6648,-5.6666,-5.6582,-5.6579,-5.6616,-5.6575,-5.6659,-5.6562,-5.6589,-5.6591,-5.6599,-5.6834,-5.6887,-5.7048,-5.675,-5.6754,-5.6756,0,-5.6881,-5.6877,-5.6965,-5.692,-5.6927,-5.6963,-5.6958,-5.6974,-5.6951,-5.6921,-5.6917,-5.6851,-5.6893,-5.6799,-5.6857,-5.6793,-5.68,-5.6782,-5.6787,-5.6787,-5.6683,-5.6841,-5.7097,-5.7122,-5.6788,-5.6786,-5.6783,0,-5.707,-5.7086,-5.7141,-5.7134,-5.7083,-5.7111,-5.7092,-5.7063,-5.7068,-5.7064,-5.7067,-5.7068,-5.707,-5.7073,-5.701,-5.6947,-5.7078,-5.6978,-5.7056,-5.7058,-5.7087,-5.7087,-5.7349,-5.7092,-5.7091,-5.7091,-5.709,0,-5.726,-5.7318,-5.7225,-5.7259,-5.7322,-5.7243,-5.7308,-5.7277,-5.7254,-5.7281,-5.7195,-5.7223,-5.7138,-5.7158,-5.7109,-5.7166,-5.7167,-5.7145,-5.7132,-5.7153,-5.7156,-5.7157,-5.7145,-5.7097,-5.7096,-5.7094,-5.7093,0,-5.748,-5.742,-5.7474,-5.7422,-5.741,-5.7459,-5.7415,-5.7445,-5.7404,-5.744,-5.7445,-5.738,-5.7399,-5.7337,-5.7346,-5.7313,-5.7397,-5.7365,-5.7405,-5.7396,-5.7478,-5.7472,-5.7751,-5.7784,-5.7505,-5.7507,-5.751,0,-5.7606,-5.7649,-5.7602,-5.7614,-5.7599,-5.762,-5.7624,-5.7549,-5.7558,-5.7536,-5.757,-5.7582,-5.7587,-5.7624,-5.7578,-5.7586,-5.7553,-5.7651,-5.7554,-5.7575,-5.7556,-5.7555,-5.756,-5.7671,-5.7675,-5.7677,-5.768,0,-5.7836,-5.7805,-5.7815,-5.7816,-5.7824,-5.7821,-5.7812,-5.7828,-5.7747,-5.7762,-5.778,-5.7785,-5.7795,-5.7809,-5.7807,-5.7788,-5.7722,-5.7711,-5.7729,-5.7752,-5.7774,-5.7765,-5.7461,-5.7704,-5.7702,-5.77,-5.7699,-5.7698,-5.8014,-5.8048,-5.8021,-5.8036,-5.8021,-5.8016,-5.8042,-5.8005,-5.8019,-5.8021,-5.7976,-5.8005,-5.7982,-5.7973,-5.7961,-5.7983,-5.7938,-5.7965,-5.7972,-5.798,-5.7995,-5.7771,-5.7983,-5.7982,-5.7981,-5.798,-5.798,0,-5.8241,-5.8219,-5.8233,-5.8224,-5.8237,-5.8173,-5.8161,-5.8176,-5.8202,-5.8186,-5.8194,-5.8217,-5.8231,-5.8188,-5.8196,-5.8222,-5.8193,-5.8227,-5.8225,-5.8222,-5.8034,-5.8017,-5.8252,-5.8251,-5.8251,-5.8251,-5.8251,-5.8251,-5.836,-5.8415,-5.8381,-5.8429,-5.8407,-5.8434,-5.8433,-5.8428,-5.8416,-5.8445,-5.8456,-5.8428,-5.8402,-5.8408,-5.8419,-5.8406,-5.8414,-5.8459,-5.8436,-5.8261,-5.8235,-5.821,-5.8194,-5.8461,-5.8462,-5.8623,-5.8624,-5.8625]},{"header":{"parameterUnit":"m.s-1","parameterCategory":1,"la1":30.2991,"la2":30.254,"lo1":-89.0895,"lo2":-89.0444,"dy":0.0017,"dx":0.0017,"nx":28,"ny":28,"refTime":"2023-09-30T21:00:00:Z","depth":0,"parameterNumber":3,"parameterNumberName":"V-component_of_WINDS"},"data":[0,0,0,0,0,0,0,0,0,0,0,0,0,0,0,0,0,0,0,0,0,0,0,0,0,0,0,0,0,0,0,0,0,0,0,0,0,0,0,0,0,0,0,0,0,0,0,0,0,0,0,0,0,0,0,0,0,0,0.5977,0.5978,0,0.5992,0.5992,0.5992,0.6052,0.6053,0.6055,0.6056,0.6065,0.6064,0.6063,0,0,0,0,0,0,0,0,0,0,0,0,0,0.5997,0.5996,0.5977,0.5978,0.5978,0.5992,0.5992,0.5992,0.6052,0.6053,0.6055,0.6057,0.6066,0.6064,0.6063,0,0,0,0,0,0,0,0,0,0,0,0,0,0.5997,0.5996,0.5977,0.6009,0.6012,0.5992,0.5992,0.5992,0.6051,0.6053,0.6055,0.6057,0.6066,0.6064,0.6063,0.6011,0,0,0.6058,0.6057,0,0,0,0,0,0,0,0,0.5997,0.5996,0.6004,0.6007,0.601,0.6022,0.6002,0.5998,0.6051,0.6036,0.6056,0.6058,0.6049,0.6049,0.6047,0.6012,0.6012,0.6058,0.6057,0.6056,0.6056,0,0,0,0,0,0,0,0.5997,0.5996,0.5983,0.6004,0.6008,0.6021,0.6024,0.6002,0.603,0.6038,0.6042,0.6043,0.6051,0.6048,0.6047,0.6012,0.6058,0.6057,0.6056,0.6055,0.5934,0.5932,0,0,0,0,0,0,0.5993,0.5996,0.5983,0.5983,0.6009,0.6019,0.6022,0.6016,0.6031,0.6035,0.6041,0.6046,0.605,0.6049,0.6048,0.5987,0.6056,0.6055,0.6054,0.5936,0.5933,0.5931,0,0,0,0,0,0,0.5993,0.5991,0.5982,0.5991,0.5991,0.6017,0.601,0.6015,0.6013,0.6034,0.6039,0.6034,0.6051,0.605,0.602,0.5988,0.6054,0.6053,0.5939,0.5935,0.5932,0.5864,0,0,0,0,0,0,0.5994,0.5991,0.5973,0.599,0.599,0.5955,0.6008,0.6014,0.6011,0.6017,0.6028,0.6032,0.6053,0.6022,0.6018,0.5987,0.6051,0.5942,0.5937,0.5933,0.5869,0.5859,0.585,0,0,0,0,0,0.5994,0.5952,0.5971,0.5969,0.5968,0.5953,0.5953,0.598,0.6008,0.5988,0.6002,0.6031,0.5993,0.6018,0.6015,0.5982,0.5944,0.5939,0.5934,0.5874,0.5861,0.585,0,0,0,0,0,0,0.5928,0.5955,0.5977,0.5939,0.5944,0.5963,0.5939,0.5966,0.596,0.5966,0.5999,0.6,0.5965,0.5971,0.5999,0.5932,0.5973,0.5967,0.5929,0.5917,0.5907,0.5905,0.605,0,0,0,0,0,0.591,0.5897,0.5921,0.5885,0.5887,0.5913,0.5907,0.5928,0.5933,0.5934,0.5946,0.5948,0.5936,0.5928,0.5918,0.5872,0.5874,0.5848,0.5838,0.583,0.5823,0.5797,0.5785,0.5914,0.5914,0.5914,0,0,0.587,0.5884,0.5873,0.5872,0.5878,0.5862,0.5914,0.5895,0.5883,0.5931,0.5903,0.5912,0.5916,0.5877,0.586,0.5881,0.5789,0.5824,0.5817,0.5814,0.5791,0.5778,0.5767,0.5911,0.5911,0.5912,0,0,0.579,0.58,0.5771,0.5776,0.5785,0.5803,0.5796,0.5812,0.582,0.5793,0.5828,0.5814,0.5794,0.5795,0.5793,0.5715,0.574,0.5711,0.5659,0.5633,0.5623,0.5614,0.5582,0.5571,0.5705,0.5705,0.5705,0,0.5739,0.5718,0.5752,0.5731,0.5729,0.5775,0.5744,0.5747,0.5751,0.5748,0.5772,0.5748,0.5754,0.5715,0.5696,0.5694,0.5685,0.5708,0.5622,0.5613,0.5605,0.5576,0.5564,0.5701,0.5702,0.5702,0.5702,0,0.5654,0.5639,0.5614,0.5619,0.5615,0.5589,0.5617,0.5608,0.563,0.5645,0.5616,0.5626,0.5619,0.5612,0.5632,0.5575,0.5587,0.5617,0.5657,0.5588,0.5561,0.555,0.5695,0.5697,0.5698,0.5699,0,0,0.5529,0.5554,0.5544,0.5546,0.556,0.5548,0.5525,0.552,0.551,0.5512,0.5491,0.5474,0.5501,0.5499,0.552,0.5498,0.5432,0.5529,0.553,0.5508,0.5366,0.5341,0.5328,0.5451,0.5449,0.5447,0.5364,0,0.5449,0.5411,0.5441,0.5396,0.5382,0.5426,0.5405,0.541,0.5424,0.5412,0.5427,0.5413,0.5452,0.545,0.5431,0.5444,0.5403,0.5451,0.5428,0.5427,0.5421,0.5314,0.5288,0.5209,0.5354,0.5353,0.5351,0,0.5351,0.535,0.5304,0.5321,0.5316,0.5296,0.5293,0.5283,0.529,0.5301,0.5299,0.5327,0.5303,0.5346,0.5312,0.5344,0.5337,0.5342,0.5339,0.5335,0.5382,0.5303,0.5185,0.5171,0.5336,0.5337,0.5338,0,0.526,0.5248,0.5218,0.5219,0.5239,0.5224,0.5231,0.524,0.5235,0.5232,0.5229,0.5223,0.5219,0.5213,0.5238,0.5268,0.5199,0.5245,0.5205,0.5204,0.5185,0.5185,0.5059,0.5187,0.5187,0.5187,0.5187,0,0.5166,0.5135,0.5177,0.5158,0.5125,0.5161,0.5126,0.5137,0.5145,0.5128,0.5167,0.515,0.5186,0.5172,0.5191,0.5158,0.5157,0.5163,0.5167,0.5157,0.5155,0.5149,0.5154,0.5184,0.5185,0.5185,0.5186,0,0.5056,0.5084,0.5054,0.5076,0.5081,0.5055,0.5073,0.5055,0.5073,0.5051,0.5048,0.5074,0.506,0.5085,0.5074,0.5087,0.5039,0.5055,0.5037,0.504,0.4997,0.4999,0.486,0.4842,0.4985,0.4983,0.4982,0,0.4992,0.4969,0.499,0.4982,0.4987,0.4974,0.497,0.5004,0.4997,0.5004,0.4985,0.4975,0.4967,0.4942,0.4959,0.495,0.4963,0.4915,0.4961,0.4951,0.4957,0.4956,0.4953,0.4903,0.4902,0.49,0.4899,0,0.4874,0.4889,0.4882,0.4879,0.4873,0.4872,0.4874,0.4865,0.4902,0.4892,0.4878,0.4873,0.4862,0.485,0.4846,0.4851,0.4879,0.4886,0.4875,0.4861,0.4851,0.4852,0.5006,0.4887,0.4888,0.4889,0.489,0.489,0.4783,0.4764,0.4775,0.4765,0.4771,0.4772,0.4756,0.4773,0.4763,0.4758,0.4779,0.476,0.4767,0.4765,0.4767,0.4752,0.4773,0.4758,0.4754,0.4748,0.474,0.4857,0.4752,0.4752,0.4752,0.4753,0.4753,0,0.4663,0.4673,0.4665,0.4666,0.4658,0.4691,0.4694,0.4684,0.4668,0.4673,0.4666,0.465,0.4639,0.4656,0.4647,0.4631,0.4644,0.4627,0.4626,0.4626,0.4724,0.4732,0.4617,0.4617,0.4617,0.4617,0.4617,0.4617,0.46,0.4569,0.4586,0.4558,0.4569,0.4552,0.4551,0.4551,0.4556,0.4536,0.4528,0.454,0.455,0.4542,0.4532,0.4538,0.453,0.4508,0.4517,0.4607,0.462,0.4632,0.464,0.4507,0.4507,0.4421,0.442,0.4419]}]]